Home > Weather > Funafuti > Past weeks

Flag for Tuvalu Past Weather in Funafuti, Tuvalu — Yesterday and Last 2 Weeks

Now
84 °F

Passing clouds.


Feels Like: 96 °F
Forecast: 81 / 87 °F
Wind: 5 mph from East

Location: Funafuti

Current Time: Aug 27, 2016 at 2:06:59 AM

Latest Report: Aug 27, 2016 at 1:00 AM


Visibility: N/A

Pressure: 29.89 "Hg

Humidity: 84%

Dew Point: 79 °F

Location of FunafutiLocation

Past Weather in Funafuti — Graph

°F

Funafuti Temperature Yesterday

Maximum temperature yesterday: 90 °F (at 1:00 PM)
Minimum temperature yesterday: 82 °F (at 1:00 AM)
Average temperature yesterday: 85 °F

High & Low Weather Summary for the Past Weeks

 TemperatureHumidityPressure
High90 °F (Aug 13, 1:00 PM)94% (Aug 16, 7:00 PM)29.95 "Hg (Aug 16, 7:00 PM)
Low79 °F (Aug 13, 6:00 AM)66% (Aug 12, 1:00 PM)29.68 "Hg (Aug 15, 4:00 PM)
Average84 °F80%29.80 "Hg
* Reported Aug 12 1:00 AM — Aug 27 1:00 AM, Funafuti, Weather by CustomWeather, © 2016

Note: Actual official high and low records may vary slightly from our data, if they occured in-between our weather recording intervals... More about our weather records

Advertising

Funafuti Weather History for the Previous 24 Hours

Scroll right to see more
 ConditionsComfort  
Time TempWeatherWind HumidityBarometerVisibility
1:00 AM
Sat, Aug 27
84 °FPassing clouds.5 mph84%29.89 "HgN/A
12:00 AM84 °FPassing clouds.13 mph84%29.89 "HgN/A
11:00 PM
Fri, Aug 26
84 °FPassing clouds.10 mph84%29.89 "HgN/A
10:00 PM84 °FPassing clouds.12 mph84%29.92 "HgN/A
9:00 PM84 °FPassing clouds.12 mph84%29.89 "HgN/A
8:00 PM84 °FPassing clouds.8 mph84%29.89 "HgN/A
7:00 PM84 °FPassing clouds.10 mph84%29.89 "HgN/A
6:00 PM84 °FScattered clouds.10 mph89%29.86 "HgN/A
5:00 PM88 °FScattered clouds.13 mph75%29.86 "HgN/A
3:00 PM90 °FBroken clouds.8 mph75%29.86 "HgN/A
2:00 PM88 °FPassing clouds.10 mph75%29.86 "HgN/A
1:00 PM90 °FPassing clouds.12 mph71%29.86 "HgN/A
12:00 PM88 °FPassing clouds.14 mph79%29.89 "HgN/A
11:00 AM88 °FPassing clouds.10 mph75%29.92 "HgN/A
9:00 AM88 °FScattered clouds.13 mph75%29.95 "HgN/A
8:00 AM86 °FPassing clouds.13 mph75%29.92 "HgN/A
7:00 AM84 °FPassing clouds.7 mph79%29.92 "HgN/A
6:00 AM82 °FPassing clouds.12 mph89%N/AN/A
5:00 AM82 °FPassing clouds.9 mph84%29.86 "HgN/A
4:00 AM82 °FPassing clouds.10 mph84%29.86 "HgN/A
3:00 AM82 °FPassing clouds.15 mph84%29.86 "HgN/A
2:00 AM82 °FPassing clouds.12 mph84%29.86 "HgN/A
Weather by CustomWeather, © 2016

See weather overviewHow to use our weather pages